GW0795 Weather Reports


Display with metric or nautical units.
time (UTC)temp
F
wind
direction
speed
MPH
gust
MPH
rain 1hr
in
rain 24hr
in
rain mn
in
humidity
%
barometer
mb
20260906070006 56 9 0.0 0.0 0.00 0.00 0.00 76 1016.7
20260906065504 56 9 0.0 0.0 0.00 0.00 0.00 76 1016.7
20260906065006 57 9 0.0 0.0 0.00 0.00 0.00 75 1016.7
20260906064510 57 9 0.0 0.0 0.00 0.00 0.00 75 1016.8
20260906064008 57 9 0.0 0.0 0.00 0.00 0.00 74 1016.7
20260906063504 58 9 0.0 0.0 0.00 0.00 0.00 73 1016.7
20260906063013 58 9 0.0 0.0 0.00 0.00 0.00 73 1016.7
20260906062507 58 9 0.0 0.0 0.00 0.00 0.00 73 1016.7
20260906062008 57 5 0.0 0.0 0.00 0.00 0.00 74 1016.7
20260906061522 57 9 0.0 0.0 0.00 0.00 0.00 74 1016.8
20260906061010 57 9 0.0 0.0 0.00 0.00 0.00 75 1016.7
20260906060512 56 9 0.0 0.0 0.00 0.00 0.00 75 1016.7
20260906060029 56 5 0.0 0.0 0.00 0.00 0.00 75 1016.8
20260906055515 57 9 0.0 0.0 0.00 0.00 0.00 74 1016.8
20260906055004 57 9 0.0 0.0 0.00 0.00 0.00 73 1017.0
20260906054507 57 9 0.0 0.0 0.00 0.00 0.00 73 1017.0
20260906054003 57 9 0.0 0.0 0.00 0.00 0.00 72 1017.0
20260906053507 58 9 0.0 0.0 0.00 0.00 0.00 71 1017.0
20260906053009 58 9 0.0 0.0 0.00 0.00 0.00 70 1016.9
20260906052508 59 9 0.0 0.0 0.00 0.00 0.00 69 1016.9
20260906052008 59 5 0.0 0.0 0.00 0.00 0.00 68 1017.0
20260906051516 59 9 0.0 0.0 0.00 0.00 0.00 67 1017.0
20260906051012 60 9 0.0 0.0 0.00 0.00 0.00 66 1017.0
20260906050512 60 9 0.0 0.0 0.00 0.00 0.00 66 1017.0
20260906050047 59 5 0.0 2.0 0.00 0.00 0.00 67 1017.1
20260906045513 60 9 0.0 2.0 0.00 0.00 0.00 66 1017.0
20260906045015 60 9 0.0 0.0 0.00 0.00 0.00 66 1017.0
20260906044529 60 9 0.0 0.0 0.00 0.00 0.00 65 1017.0
20260906044017 60 9 0.0 1.0 0.00 0.00 0.00 64 1017.0
20260906043503 60 9 0.0 2.0 0.00 0.00 0.00 66 1017.0
20260906043009 60 9 0.0 2.0 0.00 0.00 0.00 67 1017.0
20260906042504 60 344 0.0 0.0 0.00 0.00 0.00 65 1017.1
20260906042008 60 344 0.0 0.0 0.00 0.00 0.00 65 1017.1
20260906041517 60 344 0.0 0.0 0.00 0.00 0.00 66 1017.2
20260906041008 60 344 0.0 0.0 0.00 0.00 0.00 66 1017.2
20260906040508 60 344 0.0 0.0 0.00 0.00 0.00 65 1017.2
20260906040018 60 344 0.0 0.0 0.00 0.00 0.00 65 1017.1
20260906035511 60 344 0.0 0.0 0.00 0.00 0.00 67 1017.1
20260906035013 60 344 0.0 0.0 0.00 0.00 0.00 68 1017.1
20260906034536 60 344 0.0 0.0 0.00 0.00 0.00 69 1017.1
20260906034014 59 344 0.0 0.0 0.00 0.00 0.00 70 1017.0
20260906033512 60 344 0.0 2.0 0.00 0.00 0.00 70 1016.9
20260906033031 60 344 0.0 2.0 0.00 0.00 0.00 69 1016.8
20260906032514 60 344 0.0 0.0 0.00 0.00 0.00 69 1016.8
20260906032007 60 344 0.0 0.0 0.00 0.00 0.00 69 1016.8
20260906031509 60 344 0.0 0.0 0.00 0.00 0.00 70 1016.8
20260906031008 60 344 0.0 0.0 0.00 0.00 0.00 69 1016.7
20260906030512 61 344 0.0 1.0 0.00 0.00 0.00 68 1016.8
20260906030016 61 344 0.0 1.0 0.00 0.00 0.00 67 1016.8
20260906025511 62 344 0.0 0.0 0.00 0.00 0.00 66 1016.7
20260906025015 62 344 0.0 0.0 0.00 0.00 0.00 66 1016.7
20260906024522 62 344 0.0 0.0 0.00 0.00 0.00 67 1016.7
20260906024014 63 344 0.0 0.0 0.00 0.00 0.00 67 1016.6
20260906023513 63 344 0.0 0.0 0.00 0.00 0.00 66 1016.6
20260906023027 63 344 0.0 2.0 0.00 0.00 0.00 64 1016.6
20260906022516 63 344 0.0 2.0 0.00 0.00 0.00 64 1016.6
20260906022015 64 344 0.0 0.0 0.00 0.00 0.00 63 1016.6
20260906021530 64 344 0.0 0.0 0.00 0.00 0.00 62 1016.6
20260906021019 64 344 0.0 0.0 0.00 0.00 0.00 61 1016.6
20260906020511 65 344 0.0 2.0 0.00 0.00 0.00 59 1016.6
20260906020016 65 344 0.0 2.0 0.00 0.00 0.00 58 1016.7
20260906015511 65 344 0.0 0.0 0.00 0.00 0.00 58 1016.7
20260906015011 66 344 0.0 2.0 0.00 0.00 0.00 57 1016.6
20260906014521 66 344 0.0 3.0 0.00 0.00 0.00 56 1016.6
20260906014012 67 344 1.0 3.0 0.00 0.00 0.00 55 1016.6
20260906013514 67 323 1.0 3.0 0.00 0.00 0.00 54 1016.6
20260906013023 67 311 0.0 4.0 0.00 0.00 0.00 54 1016.6
20260906012515 67 345 0.0 4.0 0.00 0.00 0.00 53 1016.6
20260906012014 67 338 0.0 3.0 0.00 0.00 0.00 52 1016.6
20260906011530 67 290 1.0 3.0 0.00 0.00 0.00 51 1016.6
20260906011017 67 298 0.0 2.0 0.00 0.00 0.00 52 1016.6
20260906010519 67 311 0.0 3.0 0.00 0.00 0.00 52 1016.6
20260906010031 67 317 0.0 4.0 0.00 0.00 0.00 51 1016.6
20260906005517 67 283 2.0 4.0 0.00 0.00 0.00 51 1016.6
20260906005010 67 290 1.0 4.0 0.00 0.00 0.00 50 1016.5
20260906004514 67 40 0.0 4.0 0.00 0.00 0.00 50 1016.6
20260906004012 67 298 1.0 5.0 0.00 0.00 0.00 49 1016.6
20260906003516 67 289 0.0 5.0 0.00 0.00 0.00 50 1016.5
20260906003005 67 286 1.0 4.0 0.00 0.00 0.00 49 1016.5
20260906002505 67 250 1.0 4.0 0.00 0.00 0.00 48 1016.5
20260906002004 68 269 2.0 4.0 0.00 0.00 0.00 49 1016.4
20260906001504 68 294 0.0 5.0 0.00 0.00 0.00 50 1016.5
20260906001004 68 321 2.0 5.0 0.00 0.00 0.00 52 1016.5
20260906000504 68 340 1.0 5.0 0.00 0.00 0.00 53 1016.5
20260906000007 68 319 1.0 5.0 0.00 0.00 0.00 53 1016.5
20260905235506 68 281 2.0 7.0 0.00 0.00 0.00 53 1016.5
20260905235006 68 282 2.0 7.0 0.00 0.00 0.00 51 1016.6
20260905234510 69 308 2.0 6.0 0.00 0.00 0.00 51 1016.5
20260905234012 68 36 1.0 6.0 0.00 0.00 0.00 51 1016.6
20260905233512 70 285 2.0 6.0 0.00 0.00 0.00 50 1016.6
20260905233026 69 57 0.0 3.0 0.00 0.00 0.00 52 1016.6
20260905232519 68 173 1.0 4.0 0.00 0.00 0.00 52 1016.6
20260905232013 68 262 1.0 4.0 0.00 0.00 0.00 53 1016.6
20260905231504 68 37 2.0 5.0 0.00 0.00 0.00 55 1016.6
20260905231004 68 278 2.0 5.0 0.00 0.00 0.00 55 1016.6
20260905230503 68 288 1.0 4.0 0.00 0.00 0.00 59 1016.6
20260905230005 67 63 1.0 6.0 0.00 0.00 0.00 61 1016.6
20260905225504 67 120 2.0 6.0 0.00 0.00 0.00 62 1016.7
20260905225006 67 167 1.0 3.0 0.00 0.00 0.00 60 1016.7
20260905224513 67 313 0.0 3.0 0.00 0.00 0.00 59 1016.7
20260905224009 68 306 1.0 4.0 0.00 0.00 0.00 60 1016.9
20260905223507 67 350 2.0 4.0 0.00 0.00 0.00 55 1016.9
20260905223017 67 19 0.0 4.0 0.00 0.00 0.00 52 1017.0
20260905222512 66 122 1.0 7.0 0.00 0.00 0.00 56 1016.9
20260905222014 66 82 3.0 7.0 0.00 0.00 0.00 56 1017.0
20260905221523 67 70 2.0 4.0 0.00 0.00 0.00 56 1017.1
20260905221012 66 183 1.0 3.0 0.00 0.00 0.00 57 1017.1
20260905220504 65 302 1.0 4.0 0.00 0.00 0.00 58 1017.3
20260905220007 65 196 2.0 4.0 0.00 0.00 0.00 62 1017.4
20260905215506 65 144 1.0 6.0 0.00 0.00 0.00 64 1017.4
20260905215003 63 115 2.0 6.0 0.00 0.00 0.00 69 1017.4
20260905214508 63 153 2.0 4.0 0.00 0.00 0.00 70 1017.4
20260905214006 63 74 2.0 4.0 0.00 0.00 0.00 70 1017.5
20260905213510 63 113 2.0 4.0 0.00 0.00 0.00 69 1017.5
20260905213018 63 178 0.0 4.0 0.00 0.00 0.00 69 1017.5
20260905212510 63 161 1.0 4.0 0.00 0.00 0.00 70 1017.6
20260905212014 63 184 1.0 4.0 0.00 0.00 0.00 71 1017.6
20260905211518 63 90 2.0 4.0 0.00 0.00 0.00 70 1017.6
20260905211014 63 89 2.0 3.0 0.00 0.00 0.00 69 1017.7
20260905210515 63 184 1.0 4.0 0.00 0.00 0.00 69 1017.7
20260905210031 62 168 2.0 4.0 0.00 0.00 0.00 69 1017.7
20260905205514 63 152 2.0 3.0 0.00 0.00 0.00 68 1017.6
20260905205006 63 114 0.0 3.0 0.00 0.00 0.00 71 1017.7
20260905204510 63 148 2.0 4.0 0.00 0.00 0.00 67 1017.8
20260905204007 62 208 1.0 4.0 0.00 0.00 0.00 69 1017.7
20260905203505 62 213 0.0 3.0 0.00 0.00 0.00 68 1017.8
20260905203014 62 135 0.0 3.0 0.00 0.00 0.00 68 1017.8
20260905202506 62 69 1.0 3.0 0.00 0.00 0.00 68 1017.9
20260905202014 62 151 0.0 2.0 0.00 0.00 0.00 68 1017.9
20260905201517 62 181 1.0 2.0 0.00 0.00 0.00 68 1017.9
20260905201011 62 192 0.0 4.0 0.00 0.00 0.00 71 1017.9
20260905200514 62 171 0.0 4.0 0.00 0.00 0.00 70 1017.9
20260905200035 62 188 1.0 3.0 0.00 0.00 0.00 70 1017.9
20260905195513 62 135 2.0 3.0 0.00 0.00 0.00 69 1017.9
20260905195019 63 132 0.0 2.0 0.00 0.00 0.00 69 1018.0
20260905194529 62 207 0.0 5.0 0.00 0.00 0.00 71 1018.0
20260905194017 62 125 0.0 5.0 0.00 0.00 0.00 71 1018.1
20260905193506 61 155 3.0 5.0 0.00 0.00 0.00 70 1018.1
20260905193013 63 157 1.0 4.0 0.00 0.00 0.00 70 1018.1
20260905192510 63 154 2.0 7.0 0.00 0.00 0.00 68 1018.1
20260905192007 63 230 2.0 7.0 0.00 0.00 0.00 71 1018.1
20260905191514 63 235 2.0 4.0 0.00 0.00 0.00 68 1018.2
20260905191013 63 159 1.0 7.0 0.00 0.00 0.00 71 1018.2
20260905190512 62 160 4.0 7.0 0.00 0.00 0.00 70 1018.3
20260905190023 63 153 2.0 4.0 0.00 0.00 0.00 69 1018.2
20260905185511 63 181 1.0 4.0 0.00 0.00 0.00 70 1018.3
20260905185014 62 148 2.0 4.0 0.00 0.00 0.00 70 1018.4
20260905184534 60 123 1.0 4.0 0.00 0.00 0.00 72 1018.4
20260905184017 60 138 2.0 4.0 0.00 0.00 0.00 73 1018.5
20260905183517 61 192 1.0 5.0 0.00 0.00 0.00 73 1018.4
20260905183030 61 196 2.0 5.0 0.00 0.00 0.00 73 1018.4
20260905182514 61 201 1.0 3.0 0.00 0.00 0.00 73 1018.5
20260905182006 61 202 1.0 3.0 0.00 0.00 0.00 74 1018.6
20260905181513 60 132 0.0 5.0 0.00 0.00 0.00 73 1018.6
20260905181010 59 129 2.0 5.0 0.00 0.00 0.00 74 1018.7
20260905180513 60 152 1.0 5.0 0.00 0.00 0.00 74 1018.7
20260905180016 59 161 2.0 4.0 0.00 0.00 0.00 75 1018.7
20260905175512 60 148 1.0 3.0 0.00 0.00 0.00 74 1018.7
20260905175011 60 148 0.0 3.0 0.00 0.00 0.00 76 1018.7
20260905174534 60 86 0.0 3.0 0.00 0.00 0.00 73 1018.6
20260905174013 60 186 1.0 2.0 0.00 0.00 0.00 74 1018.5
20260905173515 60 82 1.0 3.0 0.00 0.00 0.00 72 1018.4
20260905173027 61 96 1.0 3.0 0.00 0.00 0.00 72 1018.4
20260905172517 60 195 1.0 3.0 0.00 0.00 0.00 73 1018.3
20260905172016 59 49 1.0 4.0 0.00 0.00 0.00 76 1018.3
20260905171529 59 136 0.0 4.0 0.00 0.00 0.00 77 1018.3
20260905171022 59 145 1.0 3.0 0.00 0.00 0.00 77 1018.3
20260905170510 60 284 1.0 2.0 0.00 0.00 0.00 75 1018.2
20260905170016 59 5 0.0 3.0 0.00 0.00 0.00 74 1018.2
20260905165508 59 360 1.0 3.0 0.00 0.00 0.00 74 1018.2
20260905165011 59 5 1.0 2.0 0.00 0.00 0.00 74 1018.2
20260905164522 58 94 1.0 3.0 0.00 0.00 0.00 76 1018.2
20260905164014 58 120 1.0 3.0 0.00 0.00 0.00 77 1018.1
20260905163515 58 134 0.0 2.0 0.00 0.00 0.00 78 1018.1
20260905163027 57 167 0.0 2.0 0.00 0.00 0.00 78 1018.2
20260905162514 57 158 0.0 2.0 0.00 0.00 0.00 79 1018.1
20260905162017 57 130 0.0 0.0 0.00 0.00 0.00 79 1018.1
20260905161530 57 136 0.0 0.0 0.00 0.00 0.00 79 1018.1
20260905161018 56 135 0.0 1.0 0.00 0.00 0.00 80 1018.1
20260905160520 56 115 0.0 1.0 0.00 0.00 0.00 80 1018.1
20260905160046 56 115 1.0 2.0 0.00 0.00 0.00 80 1018.1
20260905155518 56 22 1.0 2.0 0.00 0.00 0.00 81 1018.1
20260905155011 56 142 0.0 0.0 0.00 0.00 0.00 81 1018.1
20260905154518 55 142 0.0 0.0 0.00 0.00 0.00 82 1018.2
20260905154014 55 142 0.0 2.0 0.00 0.00 0.00 81 1018.1
20260905153514 55 142 0.0 2.0 0.00 0.00 0.00 82 1018.2
20260905153001 55 144 0.0 2.0 0.00 0.00 0.00 83 1018.2
20260905152502 55 146 1.0 3.0 0.00 0.00 0.00 83 1018.2
20260905152002 55 131 1.0 3.0 0.00 0.00 0.00 84 1018.2
20260905151505 55 193 1.0 2.0 0.00 0.00 0.00 84 1018.2
20260905151008 55 136 0.0 0.0 0.00 0.00 0.00 82 1018.2
20260905150507 55 113 0.0 0.0 0.00 0.00 0.00 83 1018.1
20260905150021 54 97 0.0 2.0 0.00 0.00 0.00 83 1018.1
20260905145510 54 107 0.0 3.0 0.00 0.00 0.00 84 1018.1
20260905145012 53 95 0.0 3.0 0.00 0.00 0.00 85 1018.1
20260905144537 53 86 2.0 3.0 0.00 0.00 0.00 85 1018.0
20260905144016 53 102 0.0 2.0 0.00 0.00 0.00 85 1017.9
20260905143511 53 103 0.0 0.0 0.00 0.00 0.00 86 1017.9
20260905143026 52 103 0.0 0.0 0.00 0.00 0.00 87 1017.9
20260905142513 52 103 0.0 0.0 0.00 0.00 0.00 87 1017.8
20260905142017 52 102 0.0 0.0 0.00 0.00 0.00 87 1017.7
20260905141505 52 102 0.0 0.0 0.00 0.00 0.00 87 1017.7
20260905141007 52 103 0.0 0.0 0.00 0.00 0.00 87 1017.7
20260905140505 52 102 0.0 0.0 0.00 0.00 0.00 87 1017.7
20260905140011 52 103 0.0 0.0 0.00 0.00 0.00 87 1017.5
20260905135507 52 102 0.0 0.0 0.00 0.00 0.00 87 1017.5
20260905135009 52 102 0.0 0.0 0.00 0.00 0.00 87 1017.5
20260905134518 52 102 0.0 0.0 0.00 0.00 0.00 87 1017.4
20260905134008 52 103 0.0 0.0 0.00 0.00 0.00 87 1017.4
20260905133512 52 102 0.0 0.0 0.00 0.00 0.00 87 1017.4
20260905133031 52 102 0.0 0.0 0.00 0.00 0.00 87 1017.5
20260905132517 51 103 0.0 0.0 0.00 0.00 0.00 88 1017.4
20260905132017 51 103 0.0 0.0 0.00 0.00 0.00 88 1017.4
20260905131542 51 102 0.0 0.0 0.00 0.00 0.00 88 1017.5
20260905131016 51 102 0.0 0.0 0.00 0.00 0.00 88 1017.5
20260905130515 51 102 0.0 0.0 0.00 0.00 0.00 88 1017.5
20260905130009 51 102 0.0 0.0 0.00 0.00 0.00 88 1017.5
20260905125506 51 102 0.0 0.0 0.00 0.00 0.00 88 1017.4
20260905125007 51 102 0.0 0.0 0.00 0.00 0.00 88 1017.5
20260905124515 51 102 0.0 0.0 0.00 0.00 0.00 88 1017.5
20260905124009 51 102 0.0 0.0 0.00 0.00 0.00 88 1017.4
20260905123510 51 102 0.0 0.0 0.00 0.00 0.00 88 1017.4
20260905123018 51 103 0.0 0.0 0.00 0.00 0.00 88 1017.4
20260905122512 51 102 0.0 0.0 0.00 0.00 0.00 88 1017.4
20260905122014 51 102 0.0 0.0 0.00 0.00 0.00 88 1017.3
20260905121523 51 103 0.0 0.0 0.00 0.00 0.00 89 1017.4
20260905121014 50 102 0.0 0.0 0.00 0.00 0.00 89 1017.4
20260905120519 50 103 0.0 0.0 0.00 0.00 0.00 89 1017.4
20260905120029 50 102 0.0 0.0 0.00 0.00 0.00 89 1017.4
20260905115514 50 102 0.0 0.0 0.00 0.00 0.00 89 1017.4
20260905115018 50 102 0.0 0.0 0.00 0.00 0.00 89 1017.4
20260905114512 50 102 0.0 0.0 0.00 0.00 0.00 89 1017.4
20260905114006 50 102 0.0 0.0 0.00 0.00 0.00 88 1017.3
20260905113509 50 102 0.0 0.0 0.00 0.00 0.00 89 1017.3
20260905113017 50 102 0.0 0.0 0.00 0.00 0.00 89 1017.3
20260905112510 50 103 0.0 0.0 0.00 0.00 0.00 88 1017.3
20260905112013 50 103 0.0 0.0 0.00 0.00 0.00 88 1017.3
20260905111523 50 103 0.0 0.0 0.00 0.00 0.00 88 1017.3
20260905111015 51 103 0.0 0.0 0.00 0.00 0.00 88 1017.2
20260905110515 50 103 0.0 0.0 0.00 0.00 0.00 89 1017.2
20260905110027 51 102 0.0 0.0 0.00 0.00 0.00 88 1017.2
20260905105514 51 102 0.0 0.0 0.00 0.00 0.00 88 1017.2
20260905105015 51 102 0.0 0.0 0.00 0.00 0.00 88 1017.2
20260905104529 51 103 0.0 0.0 0.00 0.00 0.00 88 1017.1
20260905104016 51 102 0.0 0.0 0.00 0.00 0.00 88 1017.1
20260905103519 51 103 0.0 0.0 0.00 0.00 0.00 88 1017.0
20260905103035 51 103 0.0 0.0 0.00 0.00 0.00 88 1017.0
20260905102509 51 103 0.0 0.0 0.00 0.00 0.00 88 1016.9
20260905102010 52 102 0.0 0.0 0.00 0.00 0.00 88 1016.9
20260905101518 52 102 0.0 0.0 0.00 0.00 0.00 88 1017.0
20260905101011 52 102 0.0 0.0 0.00 0.00 0.00 88 1016.9
20260905100511 52 102 0.0 0.0 0.00 0.00 0.00 89 1016.9
20260905100024 51 102 0.0 0.0 0.00 0.00 0.00 89 1016.8
20260905095516 51 102 0.0 0.0 0.00 0.00 0.00 89 1016.8
20260905095016 51 102 0.0 0.0 0.00 0.00 0.00 89 1016.8
20260905094529 52 103 0.0 0.0 0.00 0.00 0.00 88 1016.8
20260905094015 52 102 0.0 0.0 0.00 0.00 0.00 88 1016.8
20260905093516 52 102 0.0 0.0 0.00 0.00 0.00 88 1016.9
20260905093033 52 102 0.0 0.0 0.00 0.00 0.00 88 1016.9
20260905092516 52 102 0.0 0.0 0.00 0.00 0.00 88 1016.9
20260905092022 52 102 0.0 0.0 0.00 0.00 0.00 88 1016.9
20260905091535 52 103 0.0 0.0 0.00 0.00 0.00 88 1016.9
20260905091011 52 102 0.0 0.0 0.00 0.00 0.00 88 1016.8
20260905090510 52 102 0.0 0.0 0.00 0.00 0.00 88 1016.8
20260905090014 52 102 0.0 0.0 0.00 0.00 0.00 88 1016.8
20260905085503 52 103 0.0 0.0 0.00 0.00 0.00 88 1016.8
20260905085002 52 102 0.0 0.0 0.00 0.00 0.00 88 1016.8
20260905084503 52 102 0.0 0.0 0.00 0.00 0.00 87 1016.8
20260905084005 53 102 0.0 0.0 0.00 0.00 0.00 88 1016.7
20260905083505 53 103 0.0 0.0 0.00 0.00 0.00 87 1016.7
20260905083004 53 103 0.0 0.0 0.00 0.00 0.00 87 1016.7
20260905082506 53 102 0.0 0.0 0.00 0.00 0.00 87 1016.6
20260905082007 53 103 0.0 1.0 0.00 0.00 0.00 87 1016.5
20260905081512 53 102 0.0 2.0 0.00 0.00 0.00 86 1016.5
20260905081010 53 113 0.0 2.0 0.00 0.00 0.00 86 1016.6
20260905080510 53 113 0.0 1.0 0.00 0.00 0.00 87 1016.6
20260905080021 53 98 0.0 0.0 0.00 0.00 0.00 87 1016.6
20260905075510 53 98 0.0 0.0 0.00 0.00 0.00 86 1016.6
20260905075008 53 98 0.0 0.0 0.00 0.00 0.00 86 1016.6
20260905074517 53 98 0.0 1.0 0.00 0.00 0.00 86 1016.6
20260905074005 53 98 0.0 1.0 0.00 0.01 0.00 86 1016.6
20260905073501 53 98 0.0 0.0 0.00 0.01 0.00 86 1016.6
20260905073004 54 98 0.0 0.0 0.00 0.01 0.00 85 1016.5
20260905072508 54 98 0.0 0.0 0.00 0.01 0.00 85 1016.5
20260905072004 54 98 0.0 0.0 0.00 0.01 0.00 85 1016.5
20260905071511 54 98 0.0 0.0 0.00 0.01 0.00 85 1016.5
20260905071007 54 98 0.0 0.0 0.00 0.01 0.00 85 1016.3
20260905070508 54 98 0.0 0.0 0.00 0.01 0.00 84 1016.3